Location: Wawayanda State Park
(41.1833°N, 74.4333°W)
Time: 05:26:45
(UTC-04:00)

RESURS DK-1 - Visible Passes

Search period start: 16 September 2014 00:00
Search period end: 26 September 2014 00:00
Orbit: 563 x 565 km, 69.9° (Epoch: 16 September)

Date Brightness Start Highest point End Pass type
(mag) Time Alt. Az. Time Alt. Az. Time Alt. Az.
16 Sep 4.1 19:28:27 10° N 19:31:14 17° NE 19:34:00 10° E visible
16 Sep 3.2 21:05:39 10° NW 21:09:38 46° WSW 21:10:40 37° SSW visible
17 Sep 3.7 19:27:59 10° N 19:31:18 23° NE 19:34:36 10° ESE visible
17 Sep 3.9 21:05:46 10° NW 21:09:29 32° WSW 21:11:13 23° SSW visible
18 Sep 3.3 19:27:38 10° N 19:31:20 30° ENE 19:35:00 10° ESE visible
18 Sep 4.5 21:06:02 10° NW 21:09:19 23° WSW 21:11:54 13° SSW visible
19 Sep 2.9 19:27:22 10° NNW 19:31:20 41° ENE 19:35:16 10° SE visible
19 Sep 5.1 21:06:29 10° WNW 21:09:07 16° WSW 21:11:44 10° SW visible
20 Sep 2.5 19:27:11 10° NNW 19:31:18 58° ENE 19:35:23 10° SE visible
20 Sep 5.4 21:07:29 10° W 21:08:53 12° W 21:10:18 10° WSW visible
21 Sep 2.3 19:27:03 10° NNW 19:31:14 84° ENE 19:35:22 10° SSE visible
22 Sep 2.8 19:27:00 10° NNW 19:31:08 68° WSW 19:35:14 10° SSE visible
23 Sep 3.5 19:27:01 10° NW 19:31:00 47° WSW 19:34:59 10° S visible
24 Sep 4.3 19:27:07 10° NW 19:30:51 33° WSW 19:34:34 10° S visible
25 Sep 5.0 19:27:20 10° NW 19:30:40 23° WSW 19:33:59 10° SSW visible
